TimeEST,TemperatureF,Dew PointF,Humidity,Sea Level PressureIn,VisibilityMPH,Wind Direction,Wind SpeedMPH,Gust SpeedMPH,PrecipitationIn,Events,Conditions,WindDirDegrees,DateUTC
12:15 AM,48.2,46.4,93,30.29,7.0,Calm,Calm,-,0.00,,Clear,0,2013-01-29 05:15:00
12:35 AM,48.2,46.4,93,30.29,6.0,Calm,Calm,-,0.00,,Clear,0,2013-01-29 05:35:00
12:55 AM,50.0,46.4,87,30.29,7.0,Calm,Calm,-,0.00,,Clear,0,2013-01-29 05:55:00
1:15 AM,50.0,46.4,87,30.28,9.0,Calm,Calm,-,0.00,,Clear,0,2013-01-29 06:15:00
1:35 AM,48.2,46.4,93,30.28,5.0,Calm,Calm,-,0.00,,Partly Cloudy,0,2013-01-29 06:35:00
1:55 AM,48.2,48.2,100,30.28,0.2,Calm,Calm,-,0.00,Fog,Fog,0,2013-01-29 06:55:00
2:15 AM,48.2,46.4,93,30.27,0.2,Calm,Calm,-,0.00,Fog,Fog,0,2013-01-29 07:15:00
2:35 AM,48.2,48.2,100,30.27,0.2,Calm,Calm,-,0.00,Fog,Fog,0,2013-01-29 07:35:00
2:55 AM,48.2,48.2,100,30.27,0.2,Calm,Calm,-,0.00,Fog,Fog,0,2013-01-29 07:55:00
3:15 AM,48.2,48.2,100,30.27,0.2,Calm,Calm,-,0.00,Fog,Fog,0,2013-01-29 08:15:00
3:35 AM,48.2,48.2,100,30.27,0.2,Calm,Calm,-,0.00,Fog,Fog,0,2013-01-29 08:35:00
3:55 AM,48.2,46.4,93,30.27,0.2,Calm,Calm,-,0.00,Fog,Fog,0,2013-01-29 08:55:00
4:15 AM,48.2,48.2,100,30.27,0.2,Calm,Calm,-,0.00,Fog,Fog,0,2013-01-29 09:15:00
4:35 AM,50.0,48.2,94,30.27,0.2,Calm,Calm,-,0.00,Fog,Fog,0,2013-01-29 09:35:00
4:55 AM,48.2,48.2,100,30.27,0.2,Calm,Calm,-,0.00,Fog,Fog,0,2013-01-29 09:55:00
5:15 AM,48.2,48.2,100,30.27,0.2,Calm,Calm,-,0.00,Fog,Fog,0,2013-01-29 10:15:00
5:35 AM,48.2,48.2,100,30.27,0.2,Calm,Calm,-,0.00,Fog,Fog,0,2013-01-29 10:35:00
5:55 AM,48.2,48.2,100,30.27,0.2,Calm,Calm,-,0.00,Fog,Fog,0,2013-01-29 10:55:00
6:15 AM,48.2,48.2,100,30.27,0.2,Calm,Calm,-,0.00,Fog,Fog,0,2013-01-29 11:15:00
6:35 AM,48.2,48.2,100,30.27,0.2,Calm,Calm,-,0.00,Fog,Fog,0,2013-01-29 11:35:00
6:55 AM,48.2,48.2,100,30.27,0.2,Calm,Calm,-,0.00,Fog,Fog,0,2013-01-29 11:55:00
7:15 AM,48.2,48.2,100,30.28,0.2,Calm,Calm,-,0.00,Fog,Fog,0,2013-01-29 12:15:00
7:35 AM,48.2,48.2,100,30.28,0.2,Calm,Calm,-,0.00,Fog,Fog,0,2013-01-29 12:35:00
7:55 AM,48.2,48.2,100,30.28,0.2,Calm,Calm,-,0.00,Fog,Fog,0,2013-01-29 12:55:00
8:15 AM,50.0,50.0,100,30.28,0.2,Calm,Calm,-,0.00,Fog,Fog,0,2013-01-29 13:15:00
8:35 AM,51.8,51.8,100,30.28,0.2,Calm,Calm,-,0.00,Fog,Fog,0,2013-01-29 13:35:00
8:55 AM,53.6,53.6,100,30.28,0.2,Calm,Calm,-,0.00,Fog,Fog,0,2013-01-29 13:55:00
9:15 AM,55.4,55.4,100,30.28,0.2,Calm,Calm,-,0.00,Fog,Fog,0,2013-01-29 14:15:00
9:35 AM,57.2,57.2,100,30.28,0.2,Calm,Calm,-,0.00,Fog,Fog,0,2013-01-29 14:35:00
9:55 AM,60.8,60.8,100,30.28,3.0,Calm,Calm,-,0.00,,Mostly Cloudy,0,2013-01-29 14:55:00
10:15 AM,60.8,60.8,100,30.28,10.0,Calm,Calm,-,0.00,,Scattered Clouds,0,2013-01-29 15:15:00
10:35 AM,64.4,64.4,100,30.28,10.0,Calm,Calm,-,0.00,,Partly Cloudy,0,2013-01-29 15:35:00
10:55 AM,69.8,64.4,83,30.27,10.0,Calm,Calm,-,0.00,,Clear,0,2013-01-29 15:55:00
11:15 AM,71.6,62.6,73,30.27,10.0,South,4.6,-,0.00,,Clear,170,2013-01-29 16:15:00
11:35 AM,73.4,62.6,69,30.26,10.0,South,5.8,-,0.00,,Clear,190,2013-01-29 16:35:00
11:55 AM,73.4,62.6,69,30.25,10.0,South,9.2,-,0.00,,Clear,190,2013-01-29 16:55:00
12:35 PM,75.2,62.6,65,30.23,10.0,South,9.2,-,0.00,,Partly Cloudy,190,2013-01-29 17:35:00
12:55 PM,75.2,62.6,65,30.22,10.0,SSW,9.2,16.1,0.00,,Partly Cloudy,210,2013-01-29 17:55:00
1:15 PM,75.2,62.6,65,30.21,10.0,SW,12.7,-,0.00,,Partly Cloudy,220,2013-01-29 18:15:00
1:35 PM,75.2,62.6,65,30.20,10.0,SSW,9.2,-,0.00,,Clear,210,2013-01-29 18:35:00
1:55 PM,75.2,62.6,65,30.19,10.0,SW,15.0,19.6,0.00,,Clear,220,2013-01-29 18:55:00
2:15 PM,75.2,62.6,65,30.18,10.0,SSW,9.2,18.4,0.00,,Partly Cloudy,210,2013-01-29 19:15:00
2:35 PM,73.4,62.6,69,30.18,10.0,SSW,11.5,-,0.00,,Clear,200,2013-01-29 19:35:00
3:15 PM,73.4,62.6,69,30.17,10.0,SSW,11.5,-,0.00,,Clear,200,2013-01-29 20:15:00
3:35 PM,73.4,62.6,69,30.17,10.0,SSW,11.5,-,0.00,,Clear,200,2013-01-29 20:35:00
3:55 PM,73.4,62.6,69,30.17,10.0,SSW,8.1,-,0.00,,Clear,200,2013-01-29 20:55:00
4:15 PM,71.6,62.6,73,30.17,10.0,South,6.9,-,0.00,,Clear,170,2013-01-29 21:15:00
4:35 PM,69.8,62.6,78,30.17,10.0,South,5.8,-,0.00,,Partly Cloudy,190,2013-01-29 21:35:00
4:55 PM,69.8,62.6,78,30.18,10.0,SSW,6.9,-,0.00,,Scattered Clouds,200,2013-01-29 21:55:00
5:15 PM,66.2,62.6,88,30.17,10.0,SSE,5.8,-,0.00,,Partly Cloudy,160,2013-01-29 22:15:00
5:35 PM,66.2,62.6,88,30.17,10.0,Calm,Calm,-,0.00,,Partly Cloudy,0,2013-01-29 22:35:00
5:55 PM,64.4,60.8,88,30.17,10.0,Calm,Calm,-,0.00,,Scattered Clouds,0,2013-01-29 22:55:00
6:15 PM,62.6,60.8,94,30.16,9.0,Calm,Calm,-,0.00,,Mostly Cloudy,0,2013-01-29 23:15:00
6:35 PM,62.6,60.8,94,30.16,5.0,Calm,Calm,-,0.00,,Scattered Clouds,0,2013-01-29 23:35:00
6:55 PM,60.8,60.8,100,30.16,3.0,Calm,Calm,-,0.00,,Partly Cloudy,0,2013-01-29 23:55:00
7:15 PM,60.8,60.8,100,30.16,3.0,ESE,5.8,-,0.00,,Scattered Clouds,120,2013-01-30 00:15:00
7:35 PM,62.6,60.8,94,30.15,4.0,Calm,Calm,-,0.00,,Overcast,0,2013-01-30 00:35:00
7:55 PM,62.6,62.6,100,30.16,5.0,Calm,Calm,-,0.00,,Scattered Clouds,0,2013-01-30 00:55:00
8:15 PM,62.6,60.8,94,30.16,1.0,Calm,Calm,-,0.00,,Clear,0,2013-01-30 01:15:00
8:35 PM,62.6,60.8,94,30.16,1.2,Calm,Calm,-,0.00,,Clear,0,2013-01-30 01:35:00
8:55 PM,60.8,60.8,100,30.15,0.2,Calm,Calm,-,0.00,Fog,Fog,0,2013-01-30 01:55:00
9:15 PM,62.6,60.8,94,30.15,2.5,SSE,5.8,-,0.00,,Clear,160,2013-01-30 02:15:00
9:35 PM,62.6,62.6,100,30.15,4.0,South,8.1,-,0.00,,Clear,170,2013-01-30 02:35:00
9:55 PM,62.6,62.6,100,30.15,5.0,South,8.1,-,0.00,,Clear,180,2013-01-30 02:55:00
10:15 PM,62.6,62.6,100,30.14,7.0,South,8.1,-,0.00,,Clear,170,2013-01-30 03:15:00
10:35 PM,62.6,62.6,100,30.14,7.0,South,9.2,-,0.00,,Clear,170,2013-01-30 03:35:00
10:55 PM,62.6,62.6,100,30.15,7.0,South,9.2,-,0.00,,Clear,180,2013-01-30 03:55:00
11:15 PM,62.6,62.6,100,30.15,8.0,South,6.9,-,0.00,,Clear,170,2013-01-30 04:15:00
11:35 PM,64.4,62.6,94,30.15,7.0,South,5.8,-,0.00,,Clear,170,2013-01-30 04:35:00
11:55 PM,62.6,62.6,100,30.14,6.0,South,6.9,-,0.00,,Clear,170,2013-01-30 04:55:00